• In Netherlands
  • List of Countries
  • For 7 days
  • Water Temperature
  • Satellite Maps
  • Weather Map
  • Weather Widgets
  • user-avatar
    Login

    Hourly Weather San Juan

    Today, 18 October, Wednesday

    Time Temperature Precipitation Wind Pressure Humidity
    00:00 +27°C° 0 mm 2 mps 702 mmHg 8%
    01:00 +26°C° 0 mm 2 mps 701 mmHg 9%
    02:00 +26°C° 0 mm 2 mps 701 mmHg 14%
    03:00 +25°C° 0 mm 2 mps 701 mmHg 18%
    04:00 +24°C° 0 mm 3 mps 701 mmHg 22%
    05:00 +26°C° 0 mm 3 mps 701 mmHg 21%
    06:00 +27°C° 0 mm 3 mps 702 mmHg 19%
    07:00 +29°C° 0 mm 3 mps 702 mmHg 18%
    08:00 +30°C° 0 mm 4 mps 703 mmHg 15%
    09:00 +33°C° 0 mm 5 mps 703 mmHg 13%
    10:00 +34°C° 0 mm 6 mps 703 mmHg 11%
    11:00 +34°C° 0 mm 7 mps 703 mmHg 12%
    12:00 +35°C° 0 mm 8 mps 703 mmHg 12%
    13:00 +35°C° 0 mm 9 mps 704 mmHg 12%
    14:00 +34°C° 0 mm 9 mps 704 mmHg 14%
    15:00 +33°C° 0 mm 9 mps 704 mmHg 16%
    16:00 +32°C° 0 mm 9 mps 704 mmHg 18%
    17:00 +29°C° 0 mm 8 mps 705 mmHg 21%
    18:00 +27°C° 0 mm 8 mps 706 mmHg 24%
    19:00 +24°C° 0 mm 7 mps 707 mmHg 28%
    20:00 +23°C° 0 mm 7 mps 708 mmHg 30%
    21:00 +22°C° 0 mm 6 mps 708 mmHg 31%
    22:00 +21°C° 0 mm 6 mps 709 mmHg 33%
    23:00 +20°C° 0 mm 5 mps 709 mmHg 35%

    Tomorrow, 19 October, Thursday

    Time Temperature Precipitation Wind Pressure Humidity
    00:00 +19°C° 0 mm 4 mps 709 mmHg 37%
    01:00 +18°C° 0 mm 4 mps 709 mmHg 39%
    02:00 +18°C° 0 mm 3 mps 709 mmHg 40%
    03:00 +17°C° 0 mm 3 mps 708 mmHg 41%
    04:00 +16°C° 0 mm 2 mps 708 mmHg 42%
    05:00 +17°C° 0 mm 2 mps 708 mmHg 39%
    06:00 +18°C° 0 mm 2 mps 708 mmHg 36%
    07:00 +19°C° 0 mm 2 mps 708 mmHg 32%
    08:00 +20°C° 0 mm 2 mps 708 mmHg 29%
    09:00 +23°C° 0 mm 2 mps 707 mmHg 26%
    10:00 +24°C° 0 mm 2 mps 707 mmHg 22%
    11:00 +26°C° 0 mm 2 mps 706 mmHg 20%
    12:00 +28°C° 0 mm 3 mps 705 mmHg 18%
    13:00 +29°C° 0 mm 4 mps 704 mmHg 15%
    14:00 +30°C° 0 mm 4 mps 703 mmHg 14%
    15:00 +30°C° 0 mm 4 mps 703 mmHg 14%
    16:00 +32°C° 0 mm 4 mps 702 mmHg 13%
    17:00 +29°C° 0 mm 4 mps 702 mmHg 15%
    18:00 +28°C° 0 mm 4 mps 702 mmHg 17%
    19:00 +27°C° 0 mm 4 mps 702 mmHg 19%
    20:00 +26°C° 0 mm 4 mps 702 mmHg 20%
    21:00 +25°C° 0 mm 4 mps 702 mmHg 21%
    22:00 +25°C° 0 mm 4 mps 702 mmHg 22%
    23:00 +23°C° 0 mm 4 mps 701 mmHg 21%

    Day after tomorrow, 20 October, Friday

    Time Temperature Precipitation Wind Pressure Humidity
    00:00 +24°C° 0 mm 3 mps 701 mmHg 20%
    01:00 +22°C° 0 mm 3 mps 700 mmHg 19%
    02:00 +22°C° 0 mm 3 mps 700 mmHg 19%
    03:00 +21°C° 0 mm 3 mps 700 mmHg 18%
    04:00 +21°C° 0 mm 3 mps 700 mmHg 17%
    05:00 +22°C° 0 mm 3 mps 700 mmHg 16%
    06:00 +25°C° 0 mm 3 mps 700 mmHg 14%
    07:00 +26°C° 0 mm 3 mps 701 mmHg 13%
    08:00 +27°C° 0 mm 3 mps 701 mmHg 13%
    09:00 +29°C° 0 mm 4 mps 701 mmHg 12%
    10:00 +30°C° 0 mm 4 mps 701 mmHg 12%
    11:00 +32°C° 0 mm 5 mps 701 mmHg 11%
    12:00 +32°C° 0 mm 6 mps 701 mmHg 11%
    13:00 +33°C° 0 mm 6 mps 701 mmHg 11%
    14:00 +33°C° 0 mm 7 mps 701 mmHg 13%
    15:00 +32°C° 0 mm 8 mps 701 mmHg 14%
    16:00 +32°C° 0 mm 9 mps 701 mmHg 15%
    17:00 +28°C° 0 mm 9 mps 702 mmHg 18%
    18:00 +26°C° 0 mm 9 mps 703 mmHg 21%
    19:00 +23°C° 0 mm 9 mps 704 mmHg 23%
    20:00 +21°C° 0 mm 9 mps 705 mmHg 24%
    21:00 +20°C° 0 mm 8 mps 706 mmHg 26%
    22:00 +18°C° 0 mm 8 mps 707 mmHg 27%
    23:00 +17°C° 0 mm 7 mps 707 mmHg 27%

    21 October, Saturday

    Time Temperature Precipitation Wind Pressure Humidity
    00:00 +16°C° 0 mm 7 mps 707 mmHg 28%
    01:00 +15°C° 0 mm 6 mps 707 mmHg 28%
    02:00 +14°C° 0 mm 6 mps 707 mmHg 30%
    03:00 +14°C° 0 mm 6 mps 707 mmHg 32%
    04:00 +13°C° 0 mm 5 mps 707 mmHg 34%
    05:00 +14°C° 0 mm 5 mps 708 mmHg 36%
    06:00 +14°C° 0 mm 6 mps 709 mmHg 39%
    07:00 +14°C° 0 mm 6 mps 709 mmHg 42%
    08:00 +16°C° 0 mm 6 mps 709 mmHg 37%
    09:00 +17°C° 0 mm 5 mps 710 mmHg 33%
    10:00 +19°C° 0 mm 5 mps 710 mmHg 29%
    11:00 +20°C° 0 mm 5 mps 710 mmHg 26%
    12:00 +21°C° 0 mm 4 mps 709 mmHg 24%
    13:00 +22°C° 0 mm 4 mps 709 mmHg 21%
    14:00 +23°C° 0 mm 4 mps 709 mmHg 20%
    15:00 +23°C° 0 mm 4 mps 709 mmHg 20%
    16:00 +23°C° 0 mm 4 mps 709 mmHg 19%
    17:00 +22°C° 0 mm 3 mps 709 mmHg 20%
    18:00 +21°C° 0 mm 3 mps 710 mmHg 21%
    19:00 +20°C° 0 mm 2 mps 711 mmHg 22%
    20:00 +20°C° 0 mm 2 mps 711 mmHg 22%
    21:00 +19°C° 0 mm 2 mps 711 mmHg 23%
    22:00 +19°C° 0 mm 2 mps 711 mmHg 24%
    23:00 +18°C° 0 mm 2 mps 711 mmHg 25%

    22 October, Sunday

    Time Temperature Precipitation Wind Pressure Humidity
    00:00 +17°C° 0 mm 2 mps 711 mmHg 26%
    01:00 +17°C° 0 mm 2 mps 710 mmHg 27%
    02:00 +16°C° 0 mm 1 mps 710 mmHg 28%
    03:00 +16°C° 0 mm 1 mps 710 mmHg 29%
    04:00 +15°C° 0 mm 1 mps 709 mmHg 30%
    05:00 +16°C° 0 mm 1 mps 710 mmHg 27%
    06:00 +19°C° 0 mm 1 mps 710 mmHg 24%
    07:00 +20°C° 0 mm 1 mps 710 mmHg 22%
    08:00 +21°C° 0 mm 2 mps 710 mmHg 20%
    09:00 +23°C° 0 mm 2 mps 709 mmHg 18%
    10:00 +25°C° 0 mm 3 mps 709 mmHg 17%
    11:00 +26°C° 0 mm 3 mps 708 mmHg 16%
    12:00 +27°C° 0 mm 4 mps 707 mmHg 15%
    13:00 +28°C° 0 mm 4 mps 706 mmHg 14%
    14:00 +29°C° 0 mm 4 mps 705 mmHg 13%
    15:00 +29°C° 0 mm 4 mps 705 mmHg 13%
    16:00 +29°C° 0 mm 4 mps 704 mmHg 13%
    17:00 +28°C° 0 mm 3 mps 704 mmHg 15%
    18:00 +26°C° 0 mm 3 mps 705 mmHg 17%
    19:00 +25°C° 0 mm 2 mps 705 mmHg 19%
    20:00 +24°C° 0 mm 2 mps 705 mmHg 21%
    21:00 +23°C° 0 mm 2 mps 705 mmHg 23%
    22:00 +21°C° 0 mm 2 mps 705 mmHg 25%
    23:00 +21°C° 0 mm 2 mps 705 mmHg 27%

    23 October, Monday

    Time Temperature Precipitation Wind Pressure Humidity
    00:00 +20°C° 0 mm 2 mps 705 mmHg 28%
    01:00 +20°C° 0 mm 2 mps 704 mmHg 29%
    02:00 +19°C° 0 mm 2 mps 704 mmHg 30%
    03:00 +19°C° 0 mm 2 mps 704 mmHg 30%
    04:00 +19°C° 0 mm 2 mps 704 mmHg 31%
    05:00 +20°C° 0 mm 2 mps 705 mmHg 28%
    06:00 +23°C° 0 mm 2 mps 705 mmHg 25%
    07:00 +24°C° 0 mm 2 mps 705 mmHg 23%
    08:00 +26°C° 0 mm 2 mps 705 mmHg 20%
    09:00 +27°C° 0 mm 2 mps 705 mmHg 17%
    10:00 +28°C° 0 mm 2 mps 705 mmHg 14%
    11:00 +30°C° 0 mm 3 mps 704 mmHg 13%
    12:00 +31°C° 0 mm 3 mps 704 mmHg 12%
    13:00 +33°C° 0 mm 3 mps 703 mmHg 10%
    14:00 +33°C° 0 mm 3 mps 703 mmHg 10%
    15:00 +33°C° 0 mm 3 mps 703 mmHg 10%
    16:00 +33°C° 0 mm 3 mps 702 mmHg 10%
    17:00 +30°C° 0 mm 3 mps 703 mmHg 12%
    18:00 +29°C° 0 mm 2 mps 703 mmHg 14%
    19:00 +27°C° 0 mm 2 mps 703 mmHg 16%
    20:00 +26°C° 0 mm 2 mps 704 mmHg 18%
    21:00 +26°C° 0 mm 3 mps 704 mmHg 19%
    22:00 +25°C° 0 mm 3 mps 704 mmHg 21%
    23:00 +24°C° 0 mm 3 mps 703 mmHg 22%
    Show more